Time,TemperatureF,DewpointF,PressureIn,WindDirection,WindDirectionDegrees,WindSpeedMPH,WindSpeedGustMPH,Humidity,HourlyPrecipIn,Conditions,Clouds,dailyrainin,SolarRadiationWatts/m^2,SoftwareType,DateUTC
2013-12-25 00:00:00,75.6,72.5,29.80,NNW,340,0.0,0.0,90,0.00,,,0.00,0,Wunderground v.1.15,2013-12-24 17:00:00,
2013-12-25 00:10:00,75.5,72.4,29.80,NNW,340,0.0,0.0,90,0.00,,,0.00,0,Wunderground v.1.15,2013-12-24 17:10:00,
2013-12-25 00:20:00,75.4,72.6,29.79,NNW,340,0.0,0.0,91,0.00,,,0.00,0,Wunderground v.1.15,2013-12-24 17:20:00,
2013-12-25 00:30:00,74.9,72.4,29.79,NNW,340,0.0,0.0,92,0.00,,,0.00,0,Wunderground v.1.15,2013-12-24 17:30:00,
2013-12-25 00:40:00,74.9,72.4,29.79,NNW,340,0.0,0.0,92,0.00,,,0.00,0,Wunderground v.1.15,2013-12-24 17:40:00,
2013-12-25 00:50:00,75.1,72.3,29.78,NNW,340,0.0,0.0,91,0.00,,,0.00,0,Wunderground v.1.15,2013-12-24 17:50:00,
2013-12-25 00:55:00,75.1,72.6,29.78,NNW,340,0.0,0.0,92,0.00,,,0.00,0,Wunderground v.1.15,2013-12-24 17:55:00,
2013-12-25 01:00:00,74.9,72.4,29.78,NNW,340,0.0,0.0,92,0.00,,,0.00,0,Wunderground v.1.15,2013-12-24 18:00:00,
2013-12-25 01:10:00,74.6,72.4,29.78,NNW,340,0.0,0.0,93,0.00,,,0.00,0,Wunderground v.1.15,2013-12-24 18:10:00,
2013-12-25 01:20:00,74.7,72.2,29.78,NNW,340,0.0,0.0,92,0.00,,,0.00,0,Wunderground v.1.15,2013-12-24 18:20:00,
2013-12-25 01:30:00,74.9,72.4,29.78,NNW,340,0.0,0.0,92,0.00,,,0.00,0,Wunderground v.1.15,2013-12-24 18:30:00,
2013-12-25 01:40:00,74.9,72.4,29.77,NNW,340,0.0,0.0,92,0.00,,,0.00,0,Wunderground v.1.15,2013-12-24 18:40:00,
2013-12-25 01:50:00,74.5,72.0,29.76,NNW,340,0.0,0.0,92,0.00,,,0.00,0,Wunderground v.1.15,2013-12-24 18:50:00,
2013-12-25 02:00:00,74.1,71.9,29.76,NNW,340,0.0,0.0,93,0.00,,,0.00,0,Wunderground v.1.15,2013-12-24 19:00:00,
2013-12-25 02:05:00,73.7,71.5,29.76,NNW,340,0.0,0.0,93,0.00,,,0.00,0,Wunderground v.1.15,2013-12-24 19:05:00,
2013-12-25 02:15:00,73.5,71.7,29.76,NNW,340,0.0,0.0,94,0.00,,,0.00,0,Wunderground v.1.15,2013-12-24 19:15:00,
2013-12-25 02:25:00,73.6,71.8,29.75,NNW,340,0.0,0.0,94,0.00,,,0.00,0,Wunderground v.1.15,2013-12-24 19:25:00,
2013-12-25 02:30:00,73.6,71.8,29.75,NNW,340,0.0,0.0,94,0.00,,,0.00,0,Wunderground v.1.15,2013-12-24 19:30:00,
2013-12-25 02:40:00,73.8,71.6,29.74,NNW,340,0.0,0.0,93,0.00,,,0.00,0,Wunderground v.1.15,2013-12-24 19:40:00,
2013-12-25 02:50:00,73.7,71.9,29.74,NNW,340,0.0,0.0,94,0.00,,,0.00,0,Wunderground v.1.15,2013-12-24 19:50:00,
2013-12-25 03:00:00,73.8,71.6,29.74,NNW,340,0.0,0.0,93,0.00,,,0.00,0,Wunderground v.1.15,2013-12-24 20:00:00,
2013-12-25 03:10:00,73.7,71.5,29.74,NNW,340,0.0,0.0,93,0.00,,,0.00,0,Wunderground v.1.15,2013-12-24 20:10:00,
2013-12-25 03:20:00,73.6,71.4,29.74,NNW,340,0.0,0.0,93,0.00,,,0.00,0,Wunderground v.1.15,2013-12-24 20:20:00,
2013-12-25 03:30:00,73.3,71.5,29.74,NNW,340,0.0,0.0,94,0.00,,,0.00,0,Wunderground v.1.15,2013-12-24 20:30:00,
2013-12-25 03:40:00,73.2,71.4,29.74,NNW,340,0.0,0.0,94,0.00,,,0.00,0,Wunderground v.1.15,2013-12-24 20:40:00,
2013-12-25 03:50:00,73.0,71.2,29.73,NNW,340,0.0,0.0,94,0.00,,,0.00,0,Wunderground v.1.15,2013-12-24 20:50:00,
2013-12-25 04:00:00,72.9,71.1,29.73,NNW,340,0.0,0.0,94,0.00,,,0.00,0,Wunderground v.1.15,2013-12-24 21:00:00,
2013-12-25 04:10:00,72.9,71.1,29.73,NNW,340,0.0,0.0,94,0.00,,,0.00,0,Wunderground v.1.15,2013-12-24 21:10:00,
2013-12-25 04:20:00,73.1,71.0,29.73,NW,313,0.0,0.0,93,0.00,,,0.00,0,Wunderground v.1.15,2013-12-24 21:20:00,
2013-12-25 04:25:00,73.3,71.2,29.73,NW,313,0.0,0.0,93,0.00,,,0.00,0,Wunderground v.1.15,2013-12-24 21:25:00,
2013-12-25 04:35:00,73.3,71.2,29.74,NW,313,0.0,0.0,93,0.00,,,0.00,0,Wunderground v.1.15,2013-12-24 21:35:00,
2013-12-25 04:45:00,73.1,71.0,29.74,NW,313,0.0,0.0,93,0.00,,,0.00,0,Wunderground v.1.15,2013-12-24 21:45:00,
2013-12-25 04:50:00,72.9,71.1,29.74,NW,313,0.0,0.0,94,0.00,,,0.00,0,Wunderground v.1.15,2013-12-24 21:50:00,
2013-12-25 05:00:00,73.0,70.9,29.74,NW,313,0.0,0.0,93,0.00,,,0.00,0,Wunderground v.1.15,2013-12-24 22:00:00,
2013-12-25 05:10:00,72.7,70.9,29.75,NW,313,0.0,0.0,94,0.00,,,0.00,0,Wunderground v.1.15,2013-12-24 22:10:00,
2013-12-25 05:20:00,72.7,70.9,29.75,NW,313,0.0,0.0,94,0.00,,,0.00,0,Wunderground v.1.15,2013-12-24 22:20:00,
2013-12-25 05:30:00,72.6,70.8,29.75,NW,313,0.0,0.0,94,0.00,,,0.00,0,Wunderground v.1.15,2013-12-24 22:30:00,
2013-12-25 05:35:00,72.5,70.7,29.75,NW,313,0.0,0.0,94,0.00,,,0.00,0,Wunderground v.1.15,2013-12-24 22:35:00,
2013-12-25 05:45:00,72.5,70.7,29.75,NW,313,0.0,0.0,94,0.00,,,0.00,0,Wunderground v.1.15,2013-12-24 22:45:00,
2013-12-25 05:55:00,72.6,70.8,29.75,NW,313,0.0,0.0,94,0.00,,,0.00,0,Wunderground v.1.15,2013-12-24 22:55:00,
2013-12-25 06:00:00,72.7,71.2,29.75,NW,313,0.0,0.0,95,0.00,,,0.00,0,Wunderground v.1.15,2013-12-24 23:00:00,
2013-12-25 06:10:00,72.5,70.7,29.76,NW,313,0.0,0.0,94,0.00,,,0.00,0,Wunderground v.1.15,2013-12-24 23:10:00,
2013-12-25 06:15:00,72.3,70.8,29.76,NW,313,0.0,0.0,95,0.00,,,0.00,0,Wunderground v.1.15,2013-12-24 23:15:00,
2013-12-25 06:25:00,72.2,70.7,29.76,NW,313,0.0,0.0,95,0.00,,,0.00,0,Wunderground v.1.15,2013-12-24 23:25:00,
2013-12-25 06:35:00,72.1,70.6,29.76,NW,313,0.0,0.0,95,0.00,,,0.00,0,Wunderground v.1.15,2013-12-24 23:35:00,
2013-12-25 06:40:00,72.1,70.6,29.76,NW,313,0.0,0.0,95,0.00,,,0.00,5,Wunderground v.1.15,2013-12-24 23:40:00,
2013-12-25 06:50:00,72.1,70.6,29.77,NW,313,0.0,0.0,95,0.00,,,0.00,9,Wunderground v.1.15,2013-12-24 23:50:00,
2013-12-25 07:00:00,72.1,70.6,29.77,NW,313,0.0,0.0,95,0.00,,,0.00,23,Wunderground v.1.15,2013-12-25 00:00:00,
2013-12-25 07:05:00,72.2,70.7,29.77,NW,313,0.0,0.0,95,0.00,,,0.00,25,Wunderground v.1.15,2013-12-25 00:05:00,
2013-12-25 07:15:00,72.5,71.0,29.77,NW,313,0.0,0.0,95,0.00,,,0.00,21,Wunderground v.1.15,2013-12-25 00:15:00,
2013-12-25 07:25:00,72.9,71.1,29.78,NW,316,1.0,1.0,94,0.00,,,0.00,33,Wunderground v.1.15,2013-12-25 00:25:00,
2013-12-25 07:30:00,73.0,71.2,29.78,NNW,339,1.0,1.0,94,0.00,,,0.00,69,Wunderground v.1.15,2013-12-25 00:30:00,
2013-12-25 07:40:00,73.5,71.4,29.78,NNW,340,0.0,1.0,93,0.00,,,0.00,109,Wunderground v.1.15,2013-12-25 00:40:00,
2013-12-25 07:45:00,74.0,71.8,29.78,North,349,1.0,2.0,93,0.00,,,0.00,165,Wunderground v.1.15,2013-12-25 00:45:00,
2013-12-25 07:55:00,74.9,72.1,29.80,North,352,1.0,2.0,91,0.00,,,0.00,221,Wunderground v.1.15,2013-12-25 00:55:00,
2013-12-25 08:00:00,75.4,72.6,29.80,North,354,1.0,2.0,91,0.00,,,0.00,236,Wunderground v.1.15,2013-12-25 01:00:00,
2013-12-25 08:10:00,76.1,72.6,29.80,NNW,335,3.0,3.0,89,0.00,,,0.00,42,Wunderground v.1.15,2013-12-25 01:10:00,
2013-12-25 08:15:00,75.9,72.4,29.80,WNW,303,2.0,3.0,89,0.00,,,0.00,35,Wunderground v.1.15,2013-12-25 01:15:00,
2013-12-25 08:25:00,75.5,72.7,29.81,WNW,303,0.0,1.0,91,0.00,,,0.00,39,Wunderground v.1.15,2013-12-25 01:25:00,
2013-12-25 08:30:00,75.4,72.9,29.81,WNW,303,0.0,0.0,92,0.00,,,0.00,44,Wunderground v.1.15,2013-12-25 01:30:00,
2013-12-25 08:40:00,74.9,72.1,29.81,WNW,303,0.0,0.0,91,0.00,,,0.00,63,Wunderground v.1.15,2013-12-25 01:40:00,
2013-12-25 08:50:00,75.3,72.8,29.82,WNW,303,0.0,0.0,92,0.00,,,0.00,195,Wunderground v.1.15,2013-12-25 01:50:00,
2013-12-25 09:00:00,75.8,73.0,29.82,WNW,303,0.0,0.0,91,0.00,,,0.00,436,Wunderground v.1.15,2013-12-25 02:00:00,
2013-12-25 09:05:00,76.7,72.9,29.82,WNW,303,0.0,0.0,88,0.00,,,0.00,325,Wunderground v.1.15,2013-12-25 02:05:00,
2013-12-25 09:15:00,77.9,73.0,29.82,NW,304,0.0,0.0,85,0.00,,,0.00,272,Wunderground v.1.15,2013-12-25 02:15:00,
2013-12-25 09:25:00,78.5,74.0,29.82,NW,304,0.0,0.0,86,0.00,,,0.00,520,Wunderground v.1.15,2013-12-25 02:25:00,
2013-12-25 09:35:00,79.4,74.5,29.83,NW,304,0.0,1.0,85,0.00,,,0.00,673,Wunderground v.1.15,2013-12-25 02:35:00,
2013-12-25 09:45:00,80.7,74.7,29.83,North,0,1.0,1.0,82,0.00,,,0.00,612,Wunderground v.1.15,2013-12-25 02:45:00,
2013-12-25 09:50:00,80.8,74.4,29.82,NE,44,1.0,1.0,81,0.00,,,0.00,610,Wunderground v.1.15,2013-12-25 02:50:00,
2013-12-25 10:00:00,82.2,75.4,29.82,North,0,2.0,3.0,80,0.00,,,0.00,717,Wunderground v.1.15,2013-12-25 03:00:00,
2013-12-25 10:10:00,82.9,74.9,29.82,ENE,64,2.0,4.0,77,0.00,,,0.00,700,Wunderground v.1.15,2013-12-25 03:10:00,
2013-12-25 10:20:00,83.5,75.5,29.82,North,0,2.0,3.0,77,0.00,,,0.00,715,Wunderground v.1.15,2013-12-25 03:20:00,
2013-12-25 10:30:00,83.7,74.5,29.82,North,2,3.0,5.0,74,0.00,,,0.00,737,Wunderground v.1.15,2013-12-25 03:30:00,
2013-12-25 10:40:00,84.2,73.3,29.82,NE,55,5.0,5.0,70,0.00,,,0.00,759,Wunderground v.1.15,2013-12-25 03:40:00,
2013-12-25 10:50:00,85.0,73.3,29.82,WNW,288,3.0,3.0,68,0.00,,,0.00,779,Wunderground v.1.15,2013-12-25 03:50:00,
2013-12-25 11:00:00,84.7,73.4,29.82,North,0,5.0,5.0,69,0.00,,,0.00,744,Wunderground v.1.15,2013-12-25 04:00:00,
2013-12-25 11:10:00,84.8,73.5,29.81,NE,46,4.0,5.0,69,0.00,,,0.00,772,Wunderground v.1.15,2013-12-25 04:10:00,
2013-12-25 11:20:00,85.7,73.5,29.81,ENE,74,3.0,3.0,67,0.00,,,0.00,784,Wunderground v.1.15,2013-12-25 04:20:00,
2013-12-25 11:30:00,86.2,74.0,29.81,NNW,342,3.0,3.0,67,0.00,,,0.00,833,Wunderground v.1.15,2013-12-25 04:30:00,
2013-12-25 11:35:00,86.2,74.0,29.80,ENE,58,3.0,3.0,67,0.00,,,0.00,847,Wunderground v.1.15,2013-12-25 04:35:00,
2013-12-25 11:40:00,86.4,74.1,29.80,North,4,3.0,3.0,67,0.00,,,0.00,856,Wunderground v.1.15,2013-12-25 04:40:00,
2013-12-25 11:50:00,86.7,74.0,29.80,NNW,347,2.0,5.0,66,0.00,,,0.00,840,Wunderground v.1.15,2013-12-25 04:50:00,
2013-12-25 11:55:00,87.0,73.3,29.80,NNE,18,3.0,5.0,64,0.00,,,0.00,868,Wunderground v.1.15,2013-12-25 04:55:00,
2013-12-25 12:00:00,87.9,74.2,29.80,WNW,291,2.0,2.0,64,0.00,,,0.00,872,Wunderground v.1.15,2013-12-25 05:00:00,
2013-12-25 12:05:00,87.5,72.9,29.79,NNW,347,2.0,2.0,62,0.00,,,0.00,874,Wunderground v.1.15,2013-12-25 05:05:00,
2013-12-25 12:10:00,87.6,73.9,29.79,East,99,2.0,2.0,64,0.00,,,0.00,896,Wunderground v.1.15,2013-12-25 05:10:00,
2013-12-25 12:15:00,87.5,73.3,29.79,East,84,2.0,2.0,63,0.00,,,0.00,926,Wunderground v.1.15,2013-12-25 05:15:00,
2013-12-25 12:25:00,87.2,73.1,29.78,NE,49,2.0,3.0,63,0.00,,,0.00,255,Wunderground v.1.15,2013-12-25 05:25:00,
2013-12-25 12:35:00,86.4,73.7,29.78,SSE,159,2.0,2.0,66,0.00,,,0.00,232,Wunderground v.1.15,2013-12-25 05:35:00,
2013-12-25 12:40:00,86.0,73.8,29.78,SSE,151,2.0,2.0,67,0.00,,,0.00,287,Wunderground v.1.15,2013-12-25 05:40:00,
2013-12-25 12:50:00,85.0,75.4,29.78,West,276,1.0,2.0,73,0.00,,,0.00,211,Wunderground v.1.15,2013-12-25 05:50:00,
2013-12-25 13:00:00,84.4,76.0,29.78,SW,226,1.0,1.0,76,0.00,,,0.00,963,Wunderground v.1.15,2013-12-25 06:00:00,
2013-12-25 13:05:00,85.9,75.8,29.77,SSE,153,2.0,3.0,72,0.00,,,0.00,963,Wunderground v.1.15,2013-12-25 06:05:00,
2013-12-25 13:15:00,86.6,73.9,29.77,NE,34,2.0,5.0,66,0.00,,,0.00,904,Wunderground v.1.15,2013-12-25 06:15:00,
2013-12-25 13:25:00,88.0,73.3,29.77,NNE,20,4.0,6.0,62,0.00,,,0.00,891,Wunderground v.1.15,2013-12-25 06:25:00,
2013-12-25 13:30:00,87.2,72.6,29.77,NE,44,5.0,8.0,62,0.00,,,0.00,287,Wunderground v.1.15,2013-12-25 06:30:00,
2013-12-25 13:40:00,87.0,73.3,29.76,NE,46,4.0,4.0,64,0.00,,,0.00,251,Wunderground v.1.15,2013-12-25 06:40:00,
2013-12-25 13:50:00,86.7,73.5,29.75,North,359,4.0,4.0,65,0.00,,,0.00,281,Wunderground v.1.15,2013-12-25 06:50:00,
2013-12-25 13:55:00,87.1,74.8,29.75,East,84,3.0,4.0,67,0.00,,,0.00,721,Wunderground v.1.15,2013-12-25 06:55:00,
2013-12-25 14:00:00,87.6,73.4,29.75,North,7,3.0,4.0,63,0.00,,,0.00,751,Wunderground v.1.15,2013-12-25 07:00:00,
2013-12-25 14:10:00,87.3,73.6,29.74,ENE,71,3.0,4.0,64,0.00,,,0.00,299,Wunderground v.1.15,2013-12-25 07:10:00,
2013-12-25 14:20:00,87.1,73.4,29.73,ENE,75,3.0,6.0,64,0.00,,,0.00,169,Wunderground v.1.15,2013-12-25 07:20:00,
2013-12-25 14:30:00,86.0,73.3,29.73,NW,319,3.0,3.0,66,0.00,,,0.00,218,Wunderground v.1.15,2013-12-25 07:30:00,
2013-12-25 14:40:00,87.4,74.6,29.73,NW,309,1.0,1.0,66,0.00,,,0.00,802,Wunderground v.1.15,2013-12-25 07:40:00,
2013-12-25 14:50:00,87.0,72.9,29.72,NNE,17,2.0,3.0,63,0.00,,,0.00,241,Wunderground v.1.15,2013-12-25 07:50:00,
2013-12-25 14:55:00,86.6,73.0,29.72,NE,34,3.0,3.0,64,0.00,,,0.00,236,Wunderground v.1.15,2013-12-25 07:55:00,
2013-12-25 15:00:00,86.8,73.2,29.72,ENE,77,2.0,2.0,64,0.00,,,0.00,313,Wunderground v.1.15,2013-12-25 08:00:00,
2013-12-25 15:10:00,86.1,76.4,29.72,North,11,1.0,1.0,73,0.00,,,0.00,582,Wunderground v.1.15,2013-12-25 08:10:00,
2013-12-25 15:15:00,86.3,76.2,29.72,North,11,0.0,1.0,72,0.00,,,0.00,526,Wunderground v.1.15,2013-12-25 08:15:00,
2013-12-25 15:25:00,87.3,76.3,29.72,North,6,0.0,0.0,70,0.00,,,0.00,362,Wunderground v.1.15,2013-12-25 08:25:00,
2013-12-25 15:30:00,87.0,75.2,29.72,WNW,285,1.0,2.0,68,0.00,,,0.00,237,Wunderground v.1.15,2013-12-25 08:30:00,
2013-12-25 15:40:00,86.2,75.3,29.72,WNW,293,2.0,2.0,70,0.00,,,0.00,141,Wunderground v.1.15,2013-12-25 08:40:00,
2013-12-25 15:45:00,85.8,74.9,29.72,SSW,196,2.0,3.0,70,0.00,,,0.00,158,Wunderground v.1.15,2013-12-25 08:45:00,
2013-12-25 15:55:00,84.8,76.0,29.72,South,186,1.0,2.0,75,0.00,,,0.00,158,Wunderground v.1.15,2013-12-25 08:55:00,
2013-12-25 16:00:00,84.6,77.0,29.72,West,281,0.0,2.0,78,0.00,,,0.00,225,Wunderground v.1.15,2013-12-25 09:00:00,
2013-12-25 16:10:00,84.2,75.8,29.72,NW,315,0.0,0.0,76,0.00,,,0.00,258,Wunderground v.1.15,2013-12-25 09:10:00,
2013-12-25 16:20:00,84.2,75.4,29.72,NW,315,0.0,0.0,75,0.00,,,0.00,272,Wunderground v.1.15,2013-12-25 09:20:00,
2013-12-25 16:30:00,84.7,75.1,29.72,NW,315,0.0,0.0,73,0.00,,,0.00,272,Wunderground v.1.15,2013-12-25 09:30:00,
2013-12-25 16:40:00,84.5,74.5,29.72,NW,315,0.0,0.0,72,0.00,,,0.00,211,Wunderground v.1.15,2013-12-25 09:40:00,
2013-12-25 16:45:00,84.8,74.8,29.72,NW,316,0.0,0.0,72,0.00,,,0.00,192,Wunderground v.1.15,2013-12-25 09:45:00,
2013-12-25 16:55:00,85.0,75.4,29.72,NW,316,0.0,0.0,73,0.00,,,0.00,167,Wunderground v.1.15,2013-12-25 09:55:00,
2013-12-25 17:00:00,84.9,74.9,29.72,NW,316,0.0,0.0,72,0.00,,,0.00,135,Wunderground v.1.15,2013-12-25 10:00:00,
2013-12-25 17:10:00,84.7,75.5,29.72,NW,316,0.0,0.0,74,0.00,,,0.00,84,Wunderground v.1.15,2013-12-25 10:10:00,
2013-12-25 17:20:00,84.1,74.9,29.73,NW,322,1.0,3.0,74,0.00,,,0.00,54,Wunderground v.1.15,2013-12-25 10:20:00,
2013-12-25 17:30:00,84.0,74.8,29.73,NW,323,2.0,2.0,74,0.00,,,0.00,30,Wunderground v.1.15,2013-12-25 10:30:00,
2013-12-25 17:40:00,83.7,74.5,29.74,NNW,342,1.0,1.0,74,0.00,,,0.00,23,Wunderground v.1.15,2013-12-25 10:40:00,
2013-12-25 17:50:00,83.6,75.2,29.74,NNW,342,0.0,0.0,76,0.00,,,0.00,19,Wunderground v.1.15,2013-12-25 10:50:00,
2013-12-25 18:00:00,83.1,74.7,29.74,NNW,342,0.0,0.0,76,0.00,,,0.00,11,Wunderground v.1.15,2013-12-25 11:00:00,
2013-12-25 18:10:00,82.7,75.5,29.74,NNW,342,0.0,0.0,79,0.00,,,0.00,9,Wunderground v.1.15,2013-12-25 11:10:00,
2013-12-25 18:20:00,82.3,75.5,29.75,NNW,342,0.0,0.0,80,0.00,,,0.00,0,Wunderground v.1.15,2013-12-25 11:20:00,
2013-12-25 18:25:00,81.9,75.5,29.75,NNW,342,0.0,0.0,81,0.00,,,0.00,0,Wunderground v.1.15,2013-12-25 11:25:00,
2013-12-25 18:35:00,81.7,75.3,29.75,NNW,342,0.0,0.0,81,0.00,,,0.00,0,Wunderground v.1.15,2013-12-25 11:35:00,
2013-12-25 18:45:00,82.2,74.7,29.75,NNW,342,0.0,0.0,78,0.00,,,0.00,0,Wunderground v.1.15,2013-12-25 11:45:00,
2013-12-25 18:55:00,82.1,74.2,29.76,NNW,342,0.0,1.0,77,0.00,,,0.00,0,Wunderground v.1.15,2013-12-25 11:55:00,
2013-12-25 19:00:00,82.0,74.1,29.76,North,359,1.0,1.0,77,0.00,,,0.00,0,Wunderground v.1.15,2013-12-25 12:00:00,
2013-12-25 19:05:00,82.1,73.8,29.77,NNW,342,1.0,1.0,76,0.00,,,0.00,0,Wunderground v.1.15,2013-12-25 12:05:00,
2013-12-25 19:10:00,82.1,73.8,29.77,NNW,342,0.0,0.0,76,0.00,,,0.00,0,Wunderground v.1.15,2013-12-25 12:10:00,
2013-12-25 19:20:00,81.7,73.4,29.78,NNW,340,1.0,1.0,76,0.00,,,0.00,0,Wunderground v.1.15,2013-12-25 12:20:00,
2013-12-25 19:30:00,81.6,74.1,29.78,NNW,340,0.0,0.0,78,0.00,,,0.00,0,Wunderground v.1.15,2013-12-25 12:30:00,
2013-12-25 19:35:00,81.2,73.7,29.78,NNW,340,0.0,0.0,78,0.00,,,0.00,0,Wunderground v.1.15,2013-12-25 12:35:00,
2013-12-25 19:45:00,81.0,73.9,29.78,NNW,340,0.0,1.0,79,0.00,,,0.00,0,Wunderground v.1.15,2013-12-25 12:45:00,
2013-12-25 19:55:00,80.7,73.2,29.80,NNW,340,0.0,1.0,78,0.00,,,0.00,0,Wunderground v.1.15,2013-12-25 12:55:00,
2013-12-25 20:00:00,80.6,73.5,29.80,NNW,340,0.0,2.0,79,0.00,,,0.00,0,Wunderground v.1.15,2013-12-25 13:00:00,
2013-12-25 20:10:00,80.1,73.4,29.80,NNW,345,1.0,1.0,80,0.00,,,0.00,0,Wunderground v.1.15,2013-12-25 13:10:00,
2013-12-25 20:20:00,79.5,73.2,29.80,WNW,302,2.0,2.0,81,0.00,,,0.00,0,Wunderground v.1.15,2013-12-25 13:20:00,
2013-12-25 20:25:00,79.2,73.2,29.80,North,351,2.0,3.0,82,0.00,,,0.00,0,Wunderground v.1.15,2013-12-25 13:25:00,
2013-12-25 20:35:00,79.1,73.1,29.81,NNW,327,2.0,2.0,82,0.00,,,0.00,0,Wunderground v.1.15,2013-12-25 13:35:00,
2013-12-25 20:45:00,79.2,72.9,29.81,NNW,327,2.0,2.0,81,0.00,,,0.00,0,Wunderground v.1.15,2013-12-25 13:45:00,
2013-12-25 20:50:00,79.2,72.9,29.81,NNW,327,1.0,2.0,81,0.00,,,0.00,0,Wunderground v.1.15,2013-12-25 13:50:00,
2013-12-25 20:55:00,79.2,72.9,29.81,NNW,348,1.0,2.0,81,0.00,,,0.00,0,Wunderground v.1.15,2013-12-25 13:55:00,
2013-12-25 21:00:00,79.0,72.7,29.81,NNW,348,1.0,2.0,81,0.00,,,0.00,0,Wunderground v.1.15,2013-12-25 14:00:00,
2013-12-25 21:10:00,78.8,72.8,29.82,NNW,341,2.0,2.0,82,0.00,,,0.00,0,Wunderground v.1.15,2013-12-25 14:10:00,
2013-12-25 21:20:00,78.7,72.7,29.82,North,355,1.0,1.0,82,0.00,,,0.00,0,Wunderground v.1.15,2013-12-25 14:20:00,
2013-12-25 21:30:00,78.4,72.8,29.82,North,355,2.0,2.0,83,0.00,,,0.00,0,Wunderground v.1.15,2013-12-25 14:30:00,
2013-12-25 21:40:00,78.4,72.4,29.82,NNW,333,2.0,2.0,82,0.00,,,0.00,0,Wunderground v.1.15,2013-12-25 14:40:00,
2013-12-25 21:50:00,78.3,72.3,29.82,NNW,328,3.0,3.0,82,0.00,,,0.00,0,Wunderground v.1.15,2013-12-25 14:50:00,
2013-12-25 22:00:00,78.1,72.2,29.82,NNW,342,1.0,1.0,82,0.00,,,0.00,0,Wunderground v.1.15,2013-12-25 15:00:00,
2013-12-25 22:10:00,78.0,72.1,29.82,NNW,342,1.0,1.0,82,0.00,,,0.00,0,Wunderground v.1.15,2013-12-25 15:10:00,
2013-12-25 22:20:00,77.5,72.3,29.81,NNW,342,1.0,1.0,84,0.00,,,0.00,0,Wunderground v.1.15,2013-12-25 15:20:00,
2013-12-25 22:30:00,77.1,71.9,29.81,NNW,342,0.0,0.0,84,0.00,,,0.00,0,Wunderground v.1.15,2013-12-25 15:30:00,
2013-12-25 22:35:00,77.0,72.1,29.81,NNW,342,0.0,0.0,85,0.00,,,0.00,0,Wunderground v.1.15,2013-12-25 15:35:00,
2013-12-25 22:45:00,77.0,72.1,29.81,NNW,342,0.0,0.0,85,0.00,,,0.00,0,Wunderground v.1.15,2013-12-25 15:45:00,
2013-12-25 22:55:00,76.7,71.8,29.81,NNW,342,0.0,0.0,85,0.00,,,0.00,0,Wunderground v.1.15,2013-12-25 15:55:00,
2013-12-25 23:00:00,76.8,72.3,29.81,NNW,342,0.0,0.0,86,0.00,,,0.00,0,Wunderground v.1.15,2013-12-25 16:00:00,
2013-12-25 23:10:00,76.7,71.8,29.81,NNW,342,0.0,0.0,85,0.00,,,0.00,0,Wunderground v.1.15,2013-12-25 16:10:00,
2013-12-25 23:15:00,76.5,72.0,29.81,NNW,342,0.0,0.0,86,0.00,,,0.00,0,Wunderground v.1.15,2013-12-25 16:15:00,
2013-12-25 23:25:00,76.4,71.9,29.81,NNW,342,0.0,0.0,86,0.00,,,0.00,0,Wunderground v.1.15,2013-12-25 16:25:00,
2013-12-25 23:35:00,76.0,72.2,29.81,NNW,342,0.0,0.0,88,0.00,,,0.00,0,Wunderground v.1.15,2013-12-25 16:35:00,
2013-12-25 23:45:00,75.4,71.9,29.81,NNW,342,0.0,0.0,89,0.00,,,0.00,0,Wunderground v.1.15,2013-12-25 16:45:00,
2013-12-25 23:55:00,75.2,71.7,29.81,NNW,342,0.0,0.0,89,0.00,,,0.00,0,Wunderground v.1.15,2013-12-25 16:55:00,